| time (UTC) | temp C | wind direction | speed KPH | gust KPH | rain 1hr cm | rain 24hr cm | rain mn cm | humidity % | barometer mb |
| 20260507110313 | 12 | 0 | 0.0 | 3.2 | 0.00 | 0.00 | 0.00 | 92 | 1013.4 |
| 20260507105810 | 12 | 347 | 1.6 | 3.2 | 0.00 | 0.00 | 0.00 | 92 | 1013.8 |
| 20260507105307 | 12 | 341 | 1.6 | 3.2 | 0.00 | 0.00 | 0.00 | 92 | 1013.6 |
| 20260507104803 | 12 | 356 | 1.6 | 3.2 | 0.00 | 0.00 | 0.00 | 92 | 1013.7 |
| 20260507104259 | 12 | 332 | 1.6 | 3.2 | 0.00 | 0.00 | 0.00 | 92 | 1013.9 |
| 20260507103756 | 12 | 347 | 1.6 | 1.6 | 0.00 | 0.00 | 0.00 | 92 | 1014.0 |
| 20260507103252 | 12 | 343 | 1.6 | 1.6 | 0.00 | 0.00 | 0.00 | 92 | 1013.9 |
| 20260507102749 | 12 | 336 | 1.6 | 3.2 | 0.00 | 0.00 | 0.00 | 92 | 1013.8 |
| 20260507102245 | 12 | 346 | 1.6 | 3.2 | 0.00 | 0.00 | 0.00 | 92 | 1014.0 |
| 20260507101741 | 12 | 338 | 1.6 | 3.2 | 0.00 | 0.00 | 0.00 | 92 | 1013.9 |
| 20260507101236 | 12 | 335 | 1.6 | 3.2 | 0.00 | 0.00 | 0.00 | 92 | 1013.9 |
| 20260507100734 | 12 | 345 | 1.6 | 3.2 | 0.00 | 0.00 | 0.00 | 91 | 1013.9 |
| 20260507100232 | 12 | 339 | 0.0 | 3.2 | 0.00 | 0.00 | 0.00 | 91 | 1013.9 |
| 20260507095730 | 12 | 3 | 1.6 | 3.2 | 0.00 | 0.00 | 0.00 | 92 | 1013.8 |
| 20260507095226 | 12 | 353 | 0.0 | 3.2 | 0.00 | 0.00 | 0.00 | 92 | 1014.1 |
| 20260507094723 | 12 | 6 | 1.6 | 3.2 | 0.00 | 0.00 | 0.00 | 91 | 1014.0 |
| 20260507094220 | 12 | 323 | 3.2 | 3.2 | 0.00 | 0.00 | 0.00 | 91 | 1014.0 |
| 20260507093717 | 12 | 355 | 0.0 | 3.2 | 0.00 | 0.00 | 0.00 | 91 | 1014.2 |
| 20260507093216 | 12 | 341 | 1.6 | 3.2 | 0.00 | 0.00 | 0.00 | 90 | 1014.2 |
| 20260507092713 | 13 | 332 | 1.6 | 3.2 | 0.00 | 0.00 | 0.00 | 90 | 1014.2 |
| 20260507092209 | 13 | 340 | 1.6 | 3.2 | 0.00 | 0.00 | 0.00 | 90 | 1014.3 |
| 20260507091705 | 13 | 357 | 1.6 | 3.2 | 0.00 | 0.00 | 0.00 | 90 | 1014.2 |
| 20260507091202 | 13 | 354 | 1.6 | 3.2 | 0.00 | 0.00 | 0.00 | 91 | 1014.4 |
| 20260507090657 | 13 | 325 | 0.0 | 3.2 | 0.00 | 0.00 | 0.00 | 91 | 1014.2 |
| 20260507090154 | 13 | 350 | 1.6 | 3.2 | 0.00 | 0.00 | 0.00 | 91 | 1014.3 |
| 20260507085652 | 13 | 330 | 0.0 | 3.2 | 0.00 | 0.00 | 0.00 | 91 | 1014.3 |
| 20260507085148 | 13 | 332 | 0.0 | 3.2 | 0.00 | 0.00 | 0.00 | 91 | 1014.5 |
| 20260507084645 | 13 | 333 | 1.6 | 1.6 | 0.00 | 0.00 | 0.00 | 91 | 1014.6 |
| 20260507084142 | 13 | 339 | 1.6 | 3.2 | 0.00 | 0.00 | 0.00 | 91 | 1014.5 |
| 20260507083639 | 13 | 331 | 1.6 | 3.2 | 0.00 | 0.00 | 0.00 | 91 | 1014.6 |
| 20260507083135 | 13 | 356 | 0.0 | 3.2 | 0.00 | 0.00 | 0.00 | 91 | 1014.7 |
| 20260507082631 | 13 | 341 | 1.6 | 3.2 | 0.00 | 0.00 | 0.00 | 91 | 1014.7 |
| 20260507082128 | 13 | 351 | 1.6 | 3.2 | 0.00 | 0.00 | 0.00 | 91 | 1014.6 |
| 20260507081625 | 13 | 347 | 1.6 | 3.2 | 0.00 | 0.00 | 0.00 | 91 | 1014.7 |
| 20260507081121 | 13 | 333 | 3.2 | 3.2 | 0.00 | 0.00 | 0.00 | 90 | 1014.7 |
| 20260507080617 | 13 | 327 | 0.0 | 3.2 | 0.00 | 0.00 | 0.00 | 90 | 1014.8 |
| 20260507080115 | 13 | 328 | 3.2 | 3.2 | 0.00 | 0.00 | 0.00 | 90 | 1014.6 |
| 20260507075614 | 13 | 347 | 1.6 | 3.2 | 0.00 | 0.00 | 0.00 | 91 | 1014.6 |
| 20260507075111 | 13 | 329 | 0.0 | 1.6 | 0.00 | 0.00 | 0.00 | 91 | 1014.8 |
| 20260507074608 | 13 | 330 | 1.6 | 3.2 | 0.00 | 0.00 | 0.00 | 90 | 1014.5 |
| 20260507074106 | 13 | 332 | 1.6 | 3.2 | 0.00 | 0.00 | 0.00 | 90 | 1014.9 |
| 20260507073602 | 13 | 342 | 0.0 | 3.2 | 0.00 | 0.00 | 0.00 | 91 | 1014.8 |
| 20260507073058 | 13 | 339 | 1.6 | 3.2 | 0.00 | 0.00 | 0.00 | 90 | 1014.7 |
| 20260507072556 | 13 | 334 | 1.6 | 3.2 | 0.00 | 0.00 | 0.00 | 91 | 1014.8 |
| 20260507072053 | 13 | 9 | 0.0 | 3.2 | 0.00 | 0.00 | 0.00 | 90 | 1014.9 |
| 20260507071551 | 13 | 8 | 0.0 | 3.2 | 0.00 | 0.00 | 0.00 | 90 | 1015.0 |
| 20260507071047 | 13 | 1 | 1.6 | 3.2 | 0.00 | 0.00 | 0.00 | 89 | 1014.8 |
| 20260507070544 | 13 | 341 | 0.0 | 3.2 | 0.00 | 0.00 | 0.00 | 89 | 1014.9 |
| 20260507070041 | 13 | 334 | 0.0 | 3.2 | 0.00 | 0.00 | 0.00 | 90 | 1014.9 |
| 20260507065537 | 14 | 339 | 0.0 | 3.2 | 0.00 | 0.00 | 0.00 | 90 | 1014.8 |
| 20260507065034 | 14 | 0 | 1.6 | 3.2 | 0.00 | 0.00 | 0.00 | 90 | 1015.0 |
| 20260507064532 | 14 | 324 | 3.2 | 3.2 | 0.00 | 0.00 | 0.00 | 89 | 1015.0 |
| 20260507064031 | 14 | 346 | 1.6 | 3.2 | 0.00 | 0.00 | 0.00 | 89 | 1014.9 |
| 20260507063527 | 14 | 2 | 1.6 | 3.2 | 0.00 | 0.00 | 0.00 | 88 | 1015.1 |
| 20260507063025 | 14 | 351 | 1.6 | 3.2 | 0.00 | 0.00 | 0.00 | 88 | 1015.1 |
| 20260507062521 | 14 | 331 | 1.6 | 3.2 | 0.00 | 0.00 | 0.00 | 88 | 1015.0 |
| 20260507062019 | 14 | 321 | 1.6 | 3.2 | 0.00 | 0.00 | 0.00 | 88 | 1015.2 |
| 20260507061517 | 14 | 327 | 1.6 | 3.2 | 0.00 | 0.00 | 0.00 | 88 | 1014.9 |
| 20260507061015 | 14 | 339 | 1.6 | 3.2 | 0.00 | 0.00 | 0.00 | 87 | 1015.1 |
| 20260507060512 | 14 | 327 | 1.6 | 3.2 | 0.00 | 0.00 | 0.00 | 87 | 1015.1 |
| 20260507060009 | 14 | 315 | 3.2 | 3.2 | 0.00 | 0.00 | 0.00 | 87 | 1014.9 |
| 20260507055503 | 14 | 318 | 1.6 | 3.2 | 0.00 | 0.00 | 0.00 | 87 | 1014.9 |
| 20260507055000 | 15 | 337 | 1.6 | 3.2 | 0.00 | 0.00 | 0.00 | 87 | 1015.1 |
| 20260507054456 | 15 | 333 | 0.0 | 3.2 | 0.00 | 0.00 | 0.00 | 86 | 1015.0 |
| 20260507053954 | 15 | 326 | 0.0 | 3.2 | 0.00 | 0.00 | 0.00 | 86 | 1015.1 |
| 20260507053451 | 15 | 335 | 1.6 | 3.2 | 0.00 | 0.00 | 0.00 | 86 | 1015.0 |
| 20260507052949 | 15 | 342 | 1.6 | 3.2 | 0.00 | 0.00 | 0.00 | 86 | 1014.9 |
| 20260507052447 | 15 | 336 | 1.6 | 3.2 | 0.00 | 0.00 | 0.00 | 86 | 1015.0 |
| 20260507051943 | 15 | 340 | 1.6 | 3.2 | 0.00 | 0.00 | 0.00 | 86 | 1015.0 |
| 20260507051441 | 15 | 348 | 1.6 | 3.2 | 0.00 | 0.00 | 0.00 | 86 | 1015.1 |
| 20260507050938 | 15 | 327 | 3.2 | 3.2 | 0.00 | 0.00 | 0.00 | 86 | 1014.8 |
| 20260507050434 | 15 | 329 | 1.6 | 3.2 | 0.00 | 0.00 | 0.00 | 85 | 1014.9 |
| 20260507045932 | 15 | 335 | 1.6 | 3.2 | 0.00 | 0.00 | 0.00 | 85 | 1015.1 |
| 20260507045428 | 15 | 332 | 0.0 | 3.2 | 0.00 | 0.00 | 0.00 | 85 | 1014.7 |
| 20260507044925 | 15 | 343 | 1.6 | 3.2 | 0.00 | 0.00 | 0.00 | 85 | 1014.9 |
| 20260507044422 | 15 | 338 | 1.6 | 3.2 | 0.00 | 0.00 | 0.00 | 84 | 1014.7 |
| 20260507043918 | 15 | 346 | 1.6 | 3.2 | 0.00 | 0.00 | 0.00 | 85 | 1014.8 |
| 20260507043414 | 15 | 348 | 1.6 | 3.2 | 0.00 | 0.00 | 0.00 | 84 | 1014.6 |
| 20260507042911 | 15 | 349 | 0.0 | 1.6 | 0.00 | 0.00 | 0.00 | 83 | 1014.7 |
| 20260507042407 | 15 | 344 | 3.2 | 3.2 | 0.00 | 0.00 | 0.00 | 83 | 1014.6 |
| 20260507041903 | 15 | 327 | 1.6 | 3.2 | 0.00 | 0.00 | 0.00 | 83 | 1014.7 |
| 20260507041400 | 15 | 343 | 1.6 | 3.2 | 0.00 | 0.00 | 0.00 | 83 | 1014.5 |
| 20260507040857 | 15 | 340 | 1.6 | 3.2 | 0.00 | 0.00 | 0.00 | 82 | 1014.6 |
| 20260507040353 | 15 | 331 | 1.6 | 3.2 | 0.00 | 0.00 | 0.00 | 82 | 1014.6 |
| 20260507035849 | 16 | 4 | 1.6 | 3.2 | 0.00 | 0.00 | 0.00 | 82 | 1014.5 |
| 20260507035345 | 16 | 346 | 1.6 | 3.2 | 0.00 | 0.00 | 0.00 | 82 | 1014.5 |
| 20260507034843 | 16 | 332 | 1.6 | 3.2 | 0.00 | 0.00 | 0.00 | 81 | 1014.3 |
| 20260507034339 | 16 | 344 | 1.6 | 3.2 | 0.00 | 0.00 | 0.00 | 81 | 1014.3 |
| 20260507033837 | 16 | 336 | 1.6 | 3.2 | 0.00 | 0.00 | 0.00 | 81 | 1014.5 |
| 20260507033335 | 16 | 337 | 1.6 | 3.2 | 0.00 | 0.00 | 0.00 | 81 | 1014.1 |
| 20260507032832 | 16 | 327 | 3.2 | 4.8 | 0.00 | 0.00 | 0.00 | 80 | 1014.2 |
| 20260507032328 | 16 | 312 | 0.0 | 3.2 | 0.00 | 0.00 | 0.00 | 80 | 1014.2 |
| 20260507031825 | 16 | 325 | 1.6 | 3.2 | 0.00 | 0.00 | 0.00 | 80 | 1014.1 |
| 20260507031322 | 16 | 320 | 3.2 | 3.2 | 0.00 | 0.00 | 0.00 | 80 | 1014.0 |
| 20260507030818 | 16 | 1 | 1.6 | 3.2 | 0.00 | 0.00 | 0.00 | 79 | 1014.1 |
| 20260507030316 | 16 | 313 | 3.2 | 3.2 | 0.00 | 0.00 | 0.00 | 79 | 1014.1 |
| 20260507025812 | 16 | 16 | 1.6 | 3.2 | 0.00 | 0.00 | 0.00 | 78 | 1014.0 |
| 20260507025310 | 16 | 313 | 1.6 | 3.2 | 0.00 | 0.00 | 0.00 | 77 | 1013.9 |
| 20260507024808 | 16 | 15 | 0.0 | 4.8 | 0.00 | 0.00 | 0.00 | 75 | 1013.8 |
| 20260507024304 | 17 | 298 | 3.2 | 4.8 | 0.00 | 0.00 | 0.00 | 74 | 1013.9 |
| 20260507023800 | 17 | 318 | 1.6 | 6.4 | 0.00 | 0.00 | 0.00 | 72 | 1013.7 |
| 20260507023257 | 17 | 339 | 3.2 | 4.8 | 0.00 | 0.00 | 0.00 | 71 | 1013.7 |
| 20260507022754 | 17 | 27 | 3.2 | 3.2 | 0.00 | 0.00 | 0.00 | 69 | 1013.8 |
| 20260507022251 | 17 | 300 | 3.2 | 6.4 | 0.00 | 0.00 | 0.00 | 68 | 1013.9 |
| 20260507021747 | 17 | 31 | 3.2 | 6.4 | 0.00 | 0.00 | 0.00 | 67 | 1013.6 |
| 20260507021242 | 17 | 313 | 3.2 | 6.4 | 0.00 | 0.00 | 0.00 | 67 | 1013.7 |
| 20260507020741 | 17 | 3 | 1.6 | 6.4 | 0.00 | 0.00 | 0.00 | 65 | 1013.5 |
| 20260507020237 | 18 | 315 | 1.6 | 3.2 | 0.00 | 0.00 | 0.00 | 65 | 1013.5 |
| 20260507015735 | 18 | 28 | 3.2 | 4.8 | 0.00 | 0.00 | 0.00 | 65 | 1013.6 |
| 20260507015232 | 18 | 331 | 3.2 | 6.4 | 0.00 | 0.00 | 0.00 | 65 | 1013.5 |
| 20260507014728 | 18 | 5 | 3.2 | 4.8 | 0.00 | 0.00 | 0.00 | 64 | 1013.5 |
| 20260507014225 | 19 | 17 | 0.0 | 8.0 | 0.00 | 0.00 | 0.00 | 62 | 1013.4 |
| 20260507013721 | 19 | 0 | 3.2 | 4.8 | 0.00 | 0.00 | 0.00 | 62 | 1013.5 |
| 20260507013219 | 20 | 343 | 3.2 | 6.4 | 0.00 | 0.00 | 0.00 | 61 | 1013.5 |
| 20260507012716 | 20 | 359 | 1.6 | 6.4 | 0.00 | 0.00 | 0.00 | 60 | 1013.6 |
| 20260507012217 | 20 | 343 | 3.2 | 6.4 | 0.00 | 0.00 | 0.00 | 60 | 1013.4 |
| 20260507011715 | 20 | 350 | 1.6 | 4.8 | 0.00 | 0.00 | 0.00 | 59 | 1013.5 |
| 20260507011211 | 20 | 298 | 1.6 | 4.8 | 0.00 | 0.00 | 0.00 | 59 | 1013.5 |
| 20260507010710 | 20 | 310 | 3.2 | 8.0 | 0.00 | 0.00 | 0.00 | 60 | 1013.3 |
| 20260507010207 | 21 | 309 | 1.6 | 4.8 | 0.00 | 0.00 | 0.00 | 58 | 1013.4 |
| 20260507005705 | 21 | 269 | 3.2 | 6.4 | 0.00 | 0.00 | 0.00 | 58 | 1013.4 |
| 20260507005200 | 21 | 3 | 1.6 | 6.4 | 0.00 | 0.00 | 0.00 | 57 | 1013.4 |
| 20260507004657 | 21 | 17 | 3.2 | 4.8 | 0.00 | 0.00 | 0.00 | 57 | 1013.4 |
| 20260507004155 | 21 | 340 | 1.6 | 8.0 | 0.00 | 0.00 | 0.00 | 57 | 1013.3 |
| 20260507003651 | 21 | 295 | 6.4 | 6.4 | 0.00 | 0.00 | 0.00 | 58 | 1013.5 |
| 20260507003151 | 21 | 311 | 1.6 | 6.4 | 0.00 | 0.00 | 0.00 | 56 | 1013.4 |
| 20260507002648 | 22 | 349 | 3.2 | 11.3 | 0.00 | 0.00 | 0.00 | 55 | 1013.5 |
| 20260507002144 | 22 | 349 | 1.6 | 4.8 | 0.00 | 0.00 | 0.00 | 56 | 1013.5 |
| 20260507001641 | 21 | 13 | 3.2 | 6.4 | 0.00 | 0.00 | 0.00 | 56 | 1013.6 |
| 20260507001138 | 22 | 16 | 0.0 | 6.4 | 0.00 | 0.00 | 0.00 | 54 | 1013.5 |
| 20260507000634 | 22 | 274 | 4.8 | 11.3 | 0.00 | 0.00 | 0.00 | 54 | 1013.4 |
| 20260507000130 | 22 | 307 | 3.2 | 4.8 | 0.00 | 0.00 | 0.00 | 55 | 1013.4 |
| 20260506235628 | 22 | 16 | 3.2 | 6.4 | 0.00 | 0.00 | 0.00 | 54 | 1013.4 |
| 20260506235127 | 22 | 287 | 3.2 | 8.0 | 0.00 | 0.00 | 0.00 | 52 | 1013.4 |
| 20260506234625 | 22 | 23 | 4.8 | 6.4 | 0.00 | 0.00 | 0.00 | 51 | 1013.4 |
| 20260506234122 | 22 | 3 | 3.2 | 6.4 | 0.00 | 0.00 | 0.00 | 49 | 1013.4 |
| 20260506233619 | 22 | 2 | 1.6 | 6.4 | 0.00 | 0.00 | 0.00 | 50 | 1013.3 |
| 20260506233116 | 22 | 3 | 4.8 | 6.4 | 0.00 | 0.00 | 0.00 | 49 | 1013.5 |
| 20260506232612 | 23 | 9 | 3.2 | 6.4 | 0.00 | 0.00 | 0.00 | 49 | 1013.5 |
| 20260506232107 | 23 | 331 | 3.2 | 6.4 | 0.00 | 0.00 | 0.00 | 49 | 1013.4 |
| 20260506231605 | 23 | 319 | 3.2 | 4.8 | 0.00 | 0.00 | 0.00 | 50 | 1013.6 |
| 20260506231103 | 23 | 317 | 3.2 | 6.4 | 0.00 | 0.00 | 0.00 | 48 | 1013.4 |
| 20260506230559 | 23 | 335 | 4.8 | 4.8 | 0.00 | 0.00 | 0.00 | 48 | 1013.5 |
| 20260506230057 | 23 | 358 | 1.6 | 4.8 | 0.00 | 0.00 | 0.00 | 50 | 1013.5 |
| 20260506225553 | 22 | 2 | 3.2 | 4.8 | 0.00 | 0.00 | 0.00 | 49 | 1013.6 |
| 20260506225050 | 23 | 16 | 3.2 | 8.0 | 0.00 | 0.00 | 0.00 | 50 | 1013.5 |
| 20260506224547 | 22 | 312 | 1.6 | 6.4 | 0.00 | 0.00 | 0.00 | 50 | 1013.6 |
| 20260506224043 | 22 | 33 | 8.0 | 8.0 | 0.00 | 0.00 | 0.00 | 52 | 1013.8 |
| 20260506223539 | 22 | 359 | 4.8 | 8.0 | 0.00 | 0.00 | 0.00 | 51 | 1014.0 |
| 20260506223036 | 22 | 349 | 4.8 | 6.4 | 0.00 | 0.00 | 0.00 | 50 | 1013.8 |
| 20260506222533 | 23 | 25 | 3.2 | 6.4 | 0.00 | 0.00 | 0.00 | 51 | 1014.1 |
| 20260506222029 | 23 | 353 | 4.8 | 9.7 | 0.00 | 0.00 | 0.00 | 50 | 1014.0 |
| 20260506221527 | 23 | 353 | 4.8 | 6.4 | 0.00 | 0.00 | 0.00 | 50 | 1014.1 |
| 20260506221025 | 23 | 336 | 3.2 | 4.8 | 0.00 | 0.00 | 0.00 | 51 | 1014.2 |
| 20260506220520 | 23 | 351 | 3.2 | 6.4 | 0.00 | 0.00 | 0.00 | 51 | 1014.3 |
| 20260506220016 | 23 | 283 | 3.2 | 6.4 | 0.00 | 0.00 | 0.00 | 49 | 1014.3 |
| 20260506215513 | 23 | 37 | 4.8 | 4.8 | 0.00 | 0.00 | 0.00 | 50 | 1014.3 |
| 20260506215009 | 22 | 39 | 4.8 | 6.4 | 0.00 | 0.00 | 0.00 | 49 | 1014.5 |
| 20260506214506 | 22 | 0 | 3.2 | 6.4 | 0.00 | 0.00 | 0.00 | 51 | 1014.6 |
| 20260506214003 | 22 | 280 | 3.2 | 8.0 | 0.00 | 0.00 | 0.00 | 49 | 1014.5 |
| 20260506213501 | 22 | 326 | 4.8 | 6.4 | 0.00 | 0.00 | 0.00 | 50 | 1014.6 |
| 20260506212958 | 22 | 349 | 3.2 | 4.8 | 0.00 | 0.00 | 0.00 | 50 | 1014.5 |
| 20260506212454 | 23 | 285 | 3.2 | 8.0 | 0.00 | 0.00 | 0.00 | 49 | 1014.6 |
| 20260506211949 | 23 | 332 | 3.2 | 4.8 | 0.00 | 0.00 | 0.00 | 51 | 1014.8 |
| 20260506211445 | 23 | 265 | 1.6 | 4.8 | 0.00 | 0.00 | 0.00 | 49 | 1014.7 |
| 20260506210942 | 22 | 356 | 4.8 | 6.4 | 0.00 | 0.00 | 0.00 | 50 | 1014.8 |
| 20260506210439 | 23 | 334 | 3.2 | 6.4 | 0.00 | 0.00 | 0.00 | 49 | 1014.8 |
| 20260506205936 | 23 | 1 | 3.2 | 8.0 | 0.00 | 0.00 | 0.00 | 48 | 1014.9 |
| 20260506205432 | 23 | 315 | 3.2 | 8.0 | 0.00 | 0.00 | 0.00 | 49 | 1015.0 |
| 20260506204928 | 23 | 22 | 4.8 | 4.8 | 0.00 | 0.00 | 0.00 | 50 | 1014.8 |
| 20260506204426 | 23 | 1 | 3.2 | 6.4 | 0.00 | 0.00 | 0.00 | 49 | 1014.8 |
| 20260506203924 | 22 | 4 | 3.2 | 4.8 | 0.00 | 0.00 | 0.00 | 51 | 1015.0 |
| 20260506203420 | 23 | 8 | 4.8 | 6.4 | 0.00 | 0.00 | 0.00 | 49 | 1015.0 |
| 20260506202917 | 22 | 327 | 3.2 | 4.8 | 0.00 | 0.00 | 0.00 | 52 | 1015.0 |
| 20260506202415 | 22 | 15 | 3.2 | 4.8 | 0.00 | 0.00 | 0.00 | 51 | 1015.1 |
| 20260506201911 | 22 | 336 | 3.2 | 6.4 | 0.00 | 0.00 | 0.00 | 52 | 1015.2 |
| 20260506201409 | 22 | 23 | 3.2 | 4.8 | 0.00 | 0.00 | 0.00 | 53 | 1015.2 |
| 20260506200905 | 22 | 279 | 6.4 | 6.4 | 0.00 | 0.00 | 0.00 | 51 | 1015.2 |
| 20260506200401 | 23 | 346 | 1.6 | 6.4 | 0.00 | 0.00 | 0.00 | 52 | 1015.4 |
| 20260506195857 | 23 | 328 | 3.2 | 4.8 | 0.00 | 0.00 | 0.00 | 52 | 1015.3 |
| 20260506195355 | 23 | 58 | 3.2 | 4.8 | 0.00 | 0.00 | 0.00 | 50 | 1015.3 |
| 20260506194851 | 22 | 348 | 3.2 | 4.8 | 0.00 | 0.00 | 0.00 | 52 | 1015.3 |
| 20260506194348 | 22 | 356 | 3.2 | 4.8 | 0.00 | 0.00 | 0.00 | 53 | 1015.5 |
| 20260506193846 | 22 | 295 | 4.8 | 6.4 | 0.00 | 0.00 | 0.00 | 53 | 1015.4 |
| 20260506193343 | 21 | 333 | 4.8 | 6.4 | 0.00 | 0.00 | 0.00 | 53 | 1015.7 |
| 20260506192839 | 21 | 341 | 3.2 | 6.4 | 0.00 | 0.00 | 0.00 | 55 | 1015.5 |
| 20260506192336 | 21 | 335 | 3.2 | 6.4 | 0.00 | 0.00 | 0.00 | 54 | 1015.6 |
| 20260506191833 | 21 | 296 | 6.4 | 8.0 | 0.00 | 0.00 | 0.00 | 54 | 1015.7 |
| 20260506191329 | 22 | 4 | 3.2 | 6.4 | 0.00 | 0.00 | 0.00 | 54 | 1015.7 |
| 20260506190826 | 22 | 17 | 1.6 | 6.4 | 0.00 | 0.00 | 0.00 | 53 | 1015.8 |
| 20260506190322 | 21 | 349 | 1.6 | 4.8 | 0.00 | 0.00 | 0.00 | 55 | 1015.8 |
| 20260506185820 | 22 | 27 | 3.2 | 6.4 | 0.00 | 0.00 | 0.00 | 53 | 1015.9 |
| 20260506185316 | 21 | 356 | 3.2 | 6.4 | 0.00 | 0.00 | 0.00 | 55 | 1015.8 |
| 20260506184814 | 21 | 294 | 3.2 | 6.4 | 0.00 | 0.00 | 0.00 | 54 | 1015.8 |
| 20260506184311 | 22 | 321 | 3.2 | 4.8 | 0.00 | 0.00 | 0.00 | 54 | 1015.6 |
| 20260506183808 | 22 | 359 | 3.2 | 6.4 | 0.00 | 0.00 | 0.00 | 53 | 1016.0 |
| 20260506183303 | 22 | 338 | 1.6 | 4.8 | 0.00 | 0.00 | 0.00 | 53 | 1015.9 |
| 20260506182800 | 22 | 353 | 3.2 | 6.4 | 0.00 | 0.00 | 0.00 | 52 | 1015.9 |
| 20260506182257 | 22 | 339 | 1.6 | 3.2 | 0.00 | 0.00 | 0.00 | 53 | 1015.9 |
| 20260506181755 | 22 | 355 | 3.2 | 4.8 | 0.00 | 0.00 | 0.00 | 53 | 1016.0 |
| 20260506181253 | 22 | 317 | 1.6 | 3.2 | 0.00 | 0.00 | 0.00 | 52 | 1015.8 |
| 20260506180750 | 22 | 349 | 1.6 | 3.2 | 0.00 | 0.00 | 0.00 | 52 | 1015.9 |
| 20260506180245 | 22 | 9 | 3.2 | 4.8 | 0.00 | 0.00 | 0.00 | 52 | 1015.9 |
| 20260506175742 | 22 | 344 | 1.6 | 6.4 | 0.00 | 0.00 | 0.00 | 56 | 1015.9 |
| 20260506175239 | 22 | 66 | 6.4 | 6.4 | 0.00 | 0.00 | 0.00 | 55 | 1016.1 |
| 20260506174737 | 22 | 292 | 1.6 | 4.8 | 0.00 | 0.00 | 0.00 | 54 | 1016.0 |
| 20260506174233 | 22 | 329 | 3.2 | 3.2 | 0.00 | 0.00 | 0.00 | 52 | 1016.0 |
| 20260506173732 | 22 | 335 | 3.2 | 4.8 | 0.00 | 0.00 | 0.00 | 52 | 1015.9 |
| 20260506173228 | 22 | 318 | 3.2 | 3.2 | 0.00 | 0.00 | 0.00 | 54 | 1015.9 |
| 20260506172724 | 22 | 347 | 1.6 | 3.2 | 0.00 | 0.00 | 0.00 | 52 | 1016.0 |
| 20260506172221 | 22 | 299 | 3.2 | 3.2 | 0.00 | 0.00 | 0.00 | 53 | 1016.1 |
| 20260506171719 | 21 | 298 | 0.0 | 3.2 | 0.00 | 0.00 | 0.00 | 53 | 1015.9 |
| 20260506171216 | 21 | 5 | 1.6 | 3.2 | 0.00 | 0.00 | 0.00 | 55 | 1015.8 |
| 20260506170713 | 21 | 348 | 1.6 | 4.8 | 0.00 | 0.00 | 0.00 | 56 | 1015.9 |
| 20260506170210 | 21 | 311 | 3.2 | 3.2 | 0.00 | 0.00 | 0.00 | 56 | 1015.9 |
| 20260506165709 | 20 | 345 | 1.6 | 3.2 | 0.00 | 0.00 | 0.00 | 57 | 1015.9 |
| 20260506165205 | 20 | 341 | 1.6 | 3.2 | 0.00 | 0.00 | 0.00 | 60 | 1016.0 |
| 20260506164702 | 19 | 0 | 1.6 | 3.2 | 0.00 | 0.00 | 0.00 | 62 | 1015.7 |
| 20260506164159 | 18 | 342 | 0.0 | 1.6 | 0.00 | 0.00 | 0.00 | 65 | 1015.7 |
| 20260506163655 | 17 | 338 | 0.0 | 3.2 | 0.00 | 0.00 | 0.00 | 68 | 1015.9 |
| 20260506163151 | 17 | 10 | 3.2 | 3.2 | 0.00 | 0.00 | 0.00 | 70 | 1015.9 |
| 20260506162647 | 17 | 5 | 3.2 | 4.8 | 0.00 | 0.00 | 0.00 | 69 | 1015.9 |
| 20260506162144 | 16 | 5 | 1.6 | 4.8 | 0.00 | 0.00 | 0.00 | 70 | 1016.0 |
| 20260506161641 | 16 | 329 | 0.0 | 3.2 | 0.00 | 0.00 | 0.00 | 71 | 1015.9 |
| 20260506161138 | 16 | 355 | 0.0 | 3.2 | 0.00 | 0.00 | 0.00 | 73 | 1016.1 |
| 20260506160636 | 16 | 320 | 1.6 | 3.2 | 0.00 | 0.00 | 0.00 | 75 | 1016.0 |
| 20260506160133 | 15 | 315 | 3.2 | 3.2 | 0.00 | 0.00 | 0.00 | 76 | 1015.9 |
| 20260506155632 | 15 | 347 | 0.0 | 3.2 | 0.00 | 0.00 | 0.00 | 76 | 1015.9 |
| 20260506155129 | 15 | 340 | 1.6 | 3.2 | 0.00 | 0.00 | 0.00 | 82 | 1016.0 |
| 20260506153230 | 14 | 352 | 1.6 | 3.2 | 0.00 | 0.00 | 0.00 | 82 | 1016.1 |
| 20260506152727 | 14 | 338 | 1.6 | 3.2 | 0.00 | 0.00 | 0.00 | 83 | 1016.0 |
| 20260506152224 | 14 | 321 | 0.0 | 3.2 | 0.00 | 0.00 | 0.00 | 83 | 1016.0 |
| 20260506151724 | 14 | 327 | 0.0 | 3.2 | 0.00 | 0.00 | 0.00 | 84 | 1016.1 |
| 20260506151219 | 13 | 345 | 1.6 | 3.2 | 0.00 | 0.00 | 0.00 | 85 | 1016.0 |
| 20260506150716 | 13 | 354 | 0.0 | 3.2 | 0.00 | 0.00 | 0.00 | 85 | 1016.0 |
| 20260506150213 | 13 | 346 | 1.6 | 3.2 | 0.00 | 0.00 | 0.00 | 87 | 1015.9 |
| 20260506145710 | 13 | 321 | 1.6 | 3.2 | 0.00 | 0.00 | 0.00 | 87 | 1015.9 |
| 20260506145207 | 13 | 348 | 0.0 | 3.2 | 0.00 | 0.00 | 0.00 | 88 | 1016.2 |
| 20260506144704 | 12 | 9 | 1.6 | 3.2 | 0.00 | 0.00 | 0.00 | 88 | 1016.1 |
| 20260506144201 | 12 | 358 | 0.0 | 3.2 | 0.00 | 0.00 | 0.00 | 88 | 1016.2 |
| 20260506143659 | 12 | 320 | 1.6 | 3.2 | 0.00 | 0.00 | 0.00 | 89 | 1016.2 |
| 20260506143156 | 12 | 345 | 0.0 | 3.2 | 0.00 | 0.00 | 0.00 | 89 | 1016.1 |
| 20260506142655 | 12 | 341 | 1.6 | 3.2 | 0.00 | 0.00 | 0.00 | 90 | 1015.9 |
| 20260506142152 | 11 | 333 | 0.0 | 3.2 | 0.00 | 0.00 | 0.00 | 90 | 1016.0 |
| 20260506141649 | 11 | 344 | 1.6 | 3.2 | 0.00 | 0.00 | 0.00 | 90 | 1015.7 |
| 20260506141148 | 11 | 354 | 1.6 | 3.2 | 0.00 | 0.00 | 0.00 | 91 | 1015.9 |
| 20260506140645 | 11 | 333 | 1.6 | 3.2 | 0.00 | 0.00 | 0.00 | 91 | 1015.8 |
| 20260506140142 | 11 | 332 | 3.2 | 3.2 | 0.00 | 0.00 | 0.00 | 91 | 1015.8 |
| 20260506135639 | 11 | 352 | 1.6 | 1.6 | 0.00 | 0.00 | 0.00 | 92 | 1015.8 |
| 20260506135135 | 11 | 359 | 1.6 | 3.2 | 0.00 | 0.00 | 0.00 | 92 | 1015.7 |
| 20260506134632 | 10 | 358 | 1.6 | 3.2 | 0.00 | 0.00 | 0.00 | 92 | 1015.9 |
| 20260506134127 | 10 | 322 | 3.2 | 3.2 | 0.00 | 0.00 | 0.00 | 92 | 1015.7 |
| 20260506133625 | 10 | 343 | 1.6 | 3.2 | 0.00 | 0.00 | 0.00 | 92 | 1015.7 |
| 20260506133122 | 10 | 340 | 1.6 | 3.2 | 0.00 | 0.00 | 0.00 | 92 | 1015.6 |
| 20260506132619 | 10 | 350 | 1.6 | 3.2 | 0.00 | 0.00 | 0.00 | 91 | 1015.8 |
| 20260506132116 | 10 | 345 | 1.6 | 3.2 | 0.00 | 0.00 | 0.00 | 92 | 1015.6 |
| 20260506131613 | 10 | 339 | 1.6 | 3.2 | 0.00 | 0.00 | 0.00 | 92 | 1015.5 |
| 20260506131110 | 10 | 344 | 1.6 | 3.2 | 0.00 | 0.00 | 0.00 | 91 | 1015.8 |
| 20260506130607 | 10 | 349 | 1.6 | 3.2 | 0.00 | 0.00 | 0.00 | 91 | 1015.3 |
| 20260506130104 | 10 | 344 | 1.6 | 3.2 | 0.00 | 0.00 | 0.00 | 91 | 1015.4 |
| 20260506125603 | 10 | 337 | 1.6 | 3.2 | 0.00 | 0.00 | 0.00 | 91 | 1015.4 |
| 20260506125100 | 10 | 329 | 1.6 | 3.2 | 0.00 | 0.00 | 0.00 | 90 | 1015.2 |
| 20260506124557 | 10 | 350 | 1.6 | 3.2 | 0.00 | 0.00 | 0.00 | 90 | 1015.4 |
| 20260506124055 | 10 | 339 | 1.6 | 3.2 | 0.00 | 0.00 | 0.00 | 91 | 1015.0 |
| 20260506123552 | 10 | 22 | 0.0 | 3.2 | 0.00 | 0.00 | 0.00 | 91 | 1015.3 |
| 20260506123051 | 10 | 345 | 1.6 | 3.2 | 0.00 | 0.00 | 0.00 | 90 | 1015.1 |
| 20260506122547 | 10 | 348 | 1.6 | 3.2 | 0.00 | 0.00 | 0.00 | 90 | 1015.1 |
| 20260506122045 | 10 | 335 | 1.6 | 3.2 | 0.00 | 0.00 | 0.00 | 90 | 1015.1 |
| 20260506121542 | 10 | 350 | 1.6 | 3.2 | 0.00 | 0.00 | 0.00 | 90 | 1014.9 |
| 20260506121038 | 10 | 331 | 3.2 | 3.2 | 0.00 | 0.00 | 0.00 | 90 | 1014.9 |
| 20260506120537 | 10 | 343 | 1.6 | 3.2 | 0.00 | 0.00 | 0.00 | 90 | 1014.8 |
| 20260506120034 | 10 | 347 | 1.6 | 3.2 | 0.00 | 0.00 | 0.00 | 90 | 1014.9 |
| 20260506115532 | 10 | 1 | 3.2 | 3.2 | 0.00 | 0.00 | 0.00 | 90 | 1014.8 |
| 20260506115030 | 10 | 341 | 1.6 | 3.2 | 0.00 | 0.00 | 0.00 | 89 | 1014.8 |
| 20260506114527 | 10 | 337 | 1.6 | 3.2 | 0.00 | 0.00 | 0.00 | 89 | 1014.8 |
| 20260506114026 | 10 | 335 | 1.6 | 3.2 | 0.00 | 0.00 | 0.00 | 90 | 1014.8 |
| 20260506113523 | 10 | 344 | 1.6 | 3.2 | 0.00 | 0.00 | 0.00 | 90 | 1014.5 |
| 20260506113020 | 10 | 346 | 0.0 | 3.2 | 0.00 | 0.00 | 0.00 | 89 | 1014.6 |
| 20260506112516 | 11 | 345 | 1.6 | 3.2 | 0.00 | 0.00 | 0.00 | 90 | 1014.7 |
| 20260506112014 | 11 | 336 | 0.0 | 3.2 | 0.00 | 0.00 | 0.00 | 89 | 1014.9 |
| 20260506111512 | 11 | 0 | 3.2 | 3.2 | 0.00 | 0.00 | 0.00 | 89 | 1014.7 |
| 20260506111009 | 11 | 7 | 1.6 | 3.2 | 0.00 | 0.00 | 0.00 | 90 | 1014.7 |